.
WxDataArchive / Data Records for 2006-11-13
2006-11-12 November 2006 2006-11-14

Data Records for Monday, 13 November 2006

Time	Temp	Chill	HIndex	Humid	Dewpt	 Wind 	HiWind	WindDir	Rain 	Barom 
-----	----	-----	------	-----	-----	------	------	-------	-----	----- 
00:00	34.6	34.6	34.6	84	30.3	1	3	112	0.00	30.203 
00:05	34.7	34.7	34.7	84	30.4	1	4	112	0.00	30.203 
00:10	34.7	34.7	34.7	84	30.4	2	7	112	0.00	30.203 
00:15	34.6	34.6	34.6	83	30.0	2	4	112	0.00	30.208 
00:20	34.6	34.6	34.6	84	30.3	1	4	68	0.00	30.208 
00:25	34.6	34.6	34.6	84	30.3	2	4	90	0.00	30.208 
00:30	34.7	34.7	34.7	84	30.4	1	5	112	0.00	30.209 
00:35	34.7	34.7	34.7	84	30.4	0	2	180	0.00	30.209 
00:40	34.7	34.7	34.7	84	30.4	0	2	112	0.00	30.209 
00:45	34.9	34.9	34.9	84	30.6	1	4	112	0.00	30.210 
00:50	34.9	34.9	34.9	84	30.6	2	5	112	0.00	30.210 
00:55	34.9	34.9	34.9	84	30.6	0	3	112	0.00	30.210 
01:00	34.9	34.9	34.9	84	30.6	0	2	112	0.00	30.201 
01:05	34.9	34.9	34.9	84	30.6	1	2	112	0.00	30.201 
01:10	34.9	34.9	34.9	84	30.6	1	4	90	0.00	30.201 
01:15	34.9	34.9	34.9	84	30.6	1	3	90	0.00	30.196 
01:20	34.9	34.9	34.9	84	30.6	1	3	90	0.00	30.196 
01:25	34.9	34.9	34.9	84	30.6	1	2	112	0.00	30.196 
01:30	34.9	34.9	34.9	84	30.6	0	2	90	0.00	30.189 
01:35	34.9	34.9	34.9	84	30.6	0	2	135	0.00	30.189 
01:40	34.9	34.9	34.9	84	30.6	0	1	135	0.00	30.189 
01:45	34.9	34.9	34.9	84	30.6	0	2	112	0.00	30.180 
01:50	34.9	34.9	34.9	84	30.6	0	1	68	0.00	30.180 
01:55	34.9	34.9	34.9	84	30.6	0	2	90	0.00	30.180 
02:00	34.9	34.9	34.9	84	30.6	1	4	112	0.00	30.168 
02:05	34.9	34.9	34.9	84	30.6	1	4	90	0.00	30.168 
02:10	34.9	34.9	34.9	84	30.6	2	7	112	0.00	30.168 
02:15	34.9	34.9	34.9	84	30.6	1	3	112	0.00	30.164 
02:20	34.9	34.9	34.9	85	30.9	1	3	112	0.00	30.164 
02:25	34.9	34.9	34.9	84	30.6	1	5	90	0.00	30.164 
02:30	34.9	34.9	34.9	84	30.6	1	4	112	0.00	30.156 
02:35	34.9	34.9	34.9	85	30.9	2	4	112	0.00	30.156 
02:40	34.9	34.9	34.9	85	30.9	1	5	112	0.00	30.156 
02:45	34.9	34.9	34.9	85	30.9	1	4	135	0.00	30.154 
02:50	34.9	34.9	34.9	85	30.9	1	3	135	0.00	30.154 
02:55	34.9	34.9	34.9	85	30.9	1	5	112	0.00	30.154 
03:00	34.9	34.9	34.9	85	30.9	1	4	112	0.00	30.146 
03:05	34.9	34.9	34.9	85	30.9	1	4	112	0.00	30.146 
03:10	34.9	34.9	34.9	85	30.9	1	3	90	0.00	30.146 
03:15	34.9	34.9	34.9	85	30.9	2	4	112	0.00	30.136 
03:20	34.9	34.9	34.9	85	30.9	1	5	112	0.00	30.136 
03:25	34.9	34.9	34.9	85	30.9	0	2	180	0.00	30.136 
03:30	34.9	34.9	34.9	85	30.9	0	2	158	0.00	30.140 
03:35	34.9	34.9	34.9	86	31.1	1	3	112	0.00	30.140 
03:40	34.9	34.9	34.9	86	31.1	0	2	135	0.00	30.140 
03:45	34.9	34.9	34.9	86	31.1	0	3	135	0.00	30.144 
03:50	34.9	34.9	34.9	86	31.1	1	4	112	0.00	30.144 
03:55	34.9	34.9	34.9	85	30.9	0	2	112	0.00	30.144 
04:00	34.9	34.9	34.9	86	31.1	0	2	135	0.00	30.140 
04:05	34.9	34.9	34.9	86	31.1	0	4	112	0.00	30.140 
04:10	34.9	34.9	34.9	85	30.9	1	4	90	0.00	30.140 
04:15	34.9	34.9	34.9	85	30.9	1	3	112	0.00	30.137 
04:20	34.9	34.9	34.9	85	30.9	0	2	112	0.00	30.137 
04:25	34.7	34.7	34.7	85	30.7	1	4	90	0.00	30.137 
04:30	34.7	34.7	34.7	85	30.7	1	3	135	0.00	30.146 
04:35	34.7	34.7	34.7	85	30.7	0	1	112	0.00	30.146 
04:40	34.7	34.7	34.7	85	30.7	1	5	270	0.00	30.146 
04:45	34.7	34.7	34.7	85	30.7	1	3	248	0.00	30.149 
04:50	34.6	34.6	34.6	84	30.3	1	4	225	0.00	30.149 
04:55	34.6	34.6	34.6	85	30.6	0	2	270	0.00	30.149 
05:00	34.7	34.7	34.7	85	30.7	0	3	270	0.00	30.160 
05:05	34.7	34.7	34.7	85	30.7	1	3	90	0.00	30.160 
05:10	34.7	34.7	34.7	85	30.7	0	1	112	0.00	30.160 
05:15	34.7	34.7	34.7	85	30.7	0	1	112	0.00	30.152 
05:20	34.7	34.7	34.7	85	30.7	0	2	112	0.00	30.152 
05:25	34.9	34.9	34.9	85	30.9	0	3	112	0.00	30.152 
05:30	34.9	34.9	34.9	85	30.9	0	1	248	0.00	30.149 
05:35	34.9	34.9	34.9	85	30.9	0	1	248	0.00	30.149 
05:40	34.9	34.9	34.9	85	30.9	0	2	112	0.00	30.149 
05:45	34.7	34.7	34.7	84	30.4	0	2	112	0.00	30.140 
05:50	34.7	34.7	34.7	84	30.4	0	1	112	0.00	30.140 
05:55	34.7	34.7	34.7	84	30.4	1	3	248	0.00	30.140 
06:00	34.7	34.7	34.7	84	30.4	1	3	112	0.00	30.132 
06:05	34.6	34.6	34.6	84	30.3	1	3	248	0.00	30.132 
06:10	34.6	34.6	34.6	84	30.3	1	3	248	0.00	30.132 
06:15	34.6	34.6	34.6	84	30.3	1	3	270	0.00	30.133 
06:20	34.6	34.6	34.6	84	30.3	0	3	248	0.00	30.133 
06:25	34.6	34.6	34.6	84	30.3	1	3	248	0.00	30.133 
06:30	34.7	34.7	34.7	84	30.4	0	1	248	0.00	30.130 
06:35	34.7	34.7	34.7	84	30.4	0	2	248	0.00	30.130 
06:40	34.7	34.7	34.7	84	30.4	0	1	248	0.00	30.130 
06:45	34.7	34.7	34.7	84	30.4	0	3	248	0.00	30.124 
06:50	34.6	34.6	34.6	83	30.0	1	3	112	0.00	30.124 
06:55	34.6	34.6	34.6	84	30.3	0	2	112	0.00	30.124 
07:00	34.6	34.6	34.6	84	30.3	1	3	112	0.00	30.119 
07:05	34.6	34.6	34.6	84	30.3	0	2	112	0.00	30.119 
07:10	34.6	34.6	34.6	84	30.3	1	4	112	0.00	30.119 
07:15	34.6	34.6	34.6	84	30.3	0	3	112	0.00	30.111 
07:20	34.6	34.6	34.6	84	30.3	0	3	135	0.00	30.111 
07:25	34.6	34.6	34.6	84	30.3	1	4	112	0.00	30.111 
07:30	34.6	34.6	34.6	84	30.3	1	3	135	0.00	30.107 
07:35	34.6	34.6	34.6	83	30.0	1	4	112	0.00	30.107 
07:40	34.6	34.6	34.6	83	30.0	1	3	90	0.00	30.107 
07:45	34.6	34.6	34.6	83	30.0	1	3	135	0.00	30.101 
07:50	34.6	34.6	34.6	84	30.3	1	3	90	0.00	30.101 
07:55	34.7	34.7	34.7	84	30.4	1	3	90	0.00	30.101 
08:00	34.7	34.7	34.7	83	30.1	1	3	112	0.00	30.098 
08:05	34.7	34.7	34.7	83	30.1	1	2	90	0.00	30.098 
08:10	34.7	34.7	34.7	83	30.1	1	5	45	0.00	30.098 
08:15	34.9	34.9	34.9	83	30.3	0	2	68	0.00	30.103 
08:20	34.9	34.9	34.9	83	30.3	0	1	68	0.00	30.103 
08:25	34.9	34.9	34.9	83	30.3	1	2	135	0.00	30.103 
08:30	35.0	35.0	35.0	83	30.4	1	2	68	0.00	30.102 
08:35	35.0	35.0	35.0	83	30.4	1	2	135	0.00	30.102 
08:40	35.0	35.0	35.0	82	30.1	1	4	90	0.00	30.102 
08:45	35.0	35.0	35.0	82	30.1	1	3	90	0.00	30.093 
08:50	35.2	35.2	35.2	82	30.3	2	9	135	0.00	30.093 
08:55	35.2	35.2	35.2	81	30.0	1	4	112	0.00	30.093 
09:00	35.2	35.2	35.2	82	30.3	0	3	225	0.00	30.087 
09:05	35.3	35.3	35.3	82	30.4	1	4	90	0.00	30.087 
09:10	35.2	35.2	35.2	82	30.3	1	4	90	0.00	30.087 
09:15	35.3	35.3	35.3	83	30.7	0	3	112	0.00	30.078 
09:20	35.5	35.5	35.5	81	30.3	1	5	112	0.00	30.078 
09:25	35.6	35.6	35.6	81	30.4	1	5	90	0.00	30.078 
09:30	35.8	35.8	35.8	81	30.6	1	6	90	0.00	30.071 
09:35	35.8	35.8	35.8	81	30.6	2	5	90	0.00	30.071 
09:40	35.9	35.9	35.9	80	30.3	1	5	112	0.00	30.071 
09:45	35.9	35.9	35.9	80	30.3	1	4	270	0.00	30.075 
09:50	36.0	36.0	36.0	80	30.4	1	4	112	0.00	30.075 
09:55	36.0	36.0	36.0	80	30.4	1	7	112	0.00	30.075 
10:00	36.0	36.0	36.0	80	30.4	1	4	90	0.00	30.067 
10:05	36.2	36.2	36.2	81	30.9	1	6	248	0.00	30.067 
10:10	36.3	36.3	36.3	81	31.0	1	5	90	0.00	30.067 
10:15	36.5	36.5	36.5	81	31.2	1	2	202	0.00	30.064 
10:20	36.5	36.5	36.5	80	30.9	1	4	112	0.00	30.064 
10:25	36.5	36.5	36.5	79	30.6	2	4	90	0.00	30.064 
10:30	36.6	36.6	36.6	80	31.0	2	5	135	0.00	30.047 
10:35	36.8	36.8	36.8	79	30.9	1	4	90	0.00	30.047 
10:40	36.9	36.9	36.9	79	31.0	2	5	112	0.00	30.047 
10:45	36.9	36.9	36.9	78	30.7	2	6	90	0.00	30.037 
10:50	36.9	36.9	36.9	79	31.0	1	7	202	0.00	30.037 
10:55	37.0	37.0	37.0	78	30.8	1	5	112	0.00	30.037 
11:00	37.2	37.2	37.2	79	31.3	1	4	270	0.00	30.036 
11:05	37.3	37.3	37.3	78	31.1	1	4	68	0.00	30.036 
11:10	37.3	37.3	37.3	79	31.4	1	5	90	0.00	30.036 
11:15	37.5	37.5	37.5	78	31.3	1	2	270	0.00	30.027 
11:20	37.6	37.6	37.6	79	31.7	2	6	112	0.00	30.027 
11:25	37.6	37.6	37.6	78	31.4	2	5	90	0.00	30.027 
11:30	37.8	37.8	37.8	78	31.6	2	5	112	0.00	30.006 
11:35	37.8	37.8	37.8	77	31.2	2	7	90	0.00	30.006 
11:40	37.9	37.9	37.9	77	31.3	2	5	112	0.00	30.006 
11:45	37.9	37.9	37.9	77	31.3	0	2	158	0.00	30.020 
11:50	38.0	38.0	38.0	78	31.8	0	4	158	0.00	30.020 
11:55	38.0	38.0	38.0	78	31.8	2	5	248	0.00	30.020 
12:00	38.2	38.2	38.2	78	32.0	1	3	248	0.00	30.040 
12:05	38.3	38.3	38.3	77	31.7	1	3	248	0.00	30.040 
12:10	38.3	38.3	38.3	76	31.4	1	4	248	0.00	30.040 
12:15	38.3	38.3	38.3	77	31.7	1	3	248	0.00	30.032 
12:20	38.3	38.3	38.3	77	31.7	1	4	248	0.00	30.032 
12:25	38.3	38.3	38.3	76	31.4	0	1	90	0.00	30.032 
12:30	38.2	38.2	38.2	76	31.3	1	3	248	0.00	30.017 
12:35	38.2	38.2	38.2	76	31.3	1	5	248	0.00	30.017 
12:40	38.3	38.3	38.3	75	31.1	2	6	248	0.00	30.017 
12:45	38.3	38.3	38.3	75	31.1	1	4	248	0.00	30.025 
12:50	38.6	38.6	38.6	74	31.0	1	5	248	0.00	30.025 
12:55	38.6	38.6	38.6	73	30.7	1	4	248	0.00	30.025 
13:00	38.8	38.8	38.8	76	31.9	1	4	248	0.00	30.009 
13:05	39.2	39.2	39.2	74	31.6	2	4	112	0.00	30.009 
13:10	39.3	39.3	39.3	75	32.0	1	3	248	0.00	30.009 
13:15	39.6	39.6	39.6	74	32.0	1	4	248	0.00	30.002 
13:20	39.8	39.8	39.8	74	32.2	1	4	135	0.00	30.002 
13:25	39.5	39.5	39.5	73	31.6	2	4	270	0.00	30.002 
13:30	39.6	39.6	39.6	75	32.3	1	3	248	0.00	29.987 
13:35	39.8	39.8	39.8	73	31.9	2	5	270	0.00	29.987 
13:40	39.6	39.6	39.6	74	32.0	1	3	112	0.00	29.987 
13:45	39.5	39.5	39.5	74	31.9	1	3	112	0.00	29.983 
13:50	39.5	39.5	39.5	74	31.9	1	4	248	0.00	29.983 
13:55	39.5	39.5	39.5	74	31.9	0	2	225	0.00	29.983 
14:00	39.5	39.5	39.5	74	31.9	1	3	135	0.00	29.973 
14:05	39.5	39.5	39.5	75	32.2	0	2	112	0.00	29.973 
14:10	39.5	39.5	39.5	74	31.9	1	4	248	0.00	29.973 
14:15	39.5	39.5	39.5	73	31.6	1	5	225	0.00	29.976 
14:20	39.5	39.5	39.5	74	31.9	1	3	248	0.00	29.976 
14:25	39.6	39.6	39.6	74	32.0	1	5	248	0.00	29.976 
14:30	39.6	39.6	39.6	74	32.0	1	3	202	0.00	29.971 
14:35	39.8	39.8	39.8	75	32.5	1	4	112	0.00	29.971 
14:40	39.9	39.9	39.9	74	32.3	1	4	248	0.00	29.971 
14:45	40.1	40.1	40.1	74	32.5	1	3	248	0.00	29.974 
14:50	40.1	40.1	40.1	74	32.5	1	3	248	0.00	29.974 
14:55	39.9	39.9	39.9	73	32.0	1	4	270	0.00	29.974 
15:00	39.9	39.9	39.9	74	32.3	2	5	248	0.00	29.988 
15:05	39.8	39.8	39.8	74	32.2	2	5	248	0.00	29.988 
15:10	39.8	39.8	39.8	74	32.2	2	6	248	0.00	29.988 
15:15	39.9	39.9	39.9	74	32.3	1	4	270	0.00	29.980 
15:20	40.1	40.1	40.1	75	32.8	0	2	248	0.00	29.980 
15:25	40.2	40.2	40.2	74	32.6	0	1	248	0.00	29.980 
15:30	40.3	40.3	40.3	74	32.7	0	2	248	0.00	29.971 
15:35	40.3	40.3	40.3	73	32.3	1	5	248	0.00	29.971 
15:40	40.3	40.3	40.3	74	32.7	0	2	248	0.00	29.971 
15:45	40.3	40.3	40.3	73	32.3	0	2	248	0.00	29.964 
15:50	40.3	40.3	40.3	75	33.0	0	1	248	0.00	29.964 
15:55	40.3	40.3	40.3	74	32.7	0	3	248	0.00	29.964 
16:00	40.5	40.5	40.5	75	33.2	0	1	248	0.00	29.954 
16:05	40.5	40.5	40.5	74	32.9	1	4	248	0.00	29.954 
16:10	40.5	40.5	40.5	75	33.2	0	1	248	0.00	29.954 
16:15	40.5	40.5	40.5	75	33.2	0	2	248	0.00	29.955 
16:20	40.5	40.5	40.5	74	32.9	0	1	248	0.00	29.955 
16:25	40.3	40.3	40.3	74	32.7	0	2	248	0.00	29.955 
16:30	40.5	40.5	40.5	75	33.2	0	1	248	0.00	29.956 
16:35	40.5	40.5	40.5	75	33.2	0	2	248	0.00	29.956 
16:40	40.5	40.5	40.5	75	33.2	0	2	248	0.00	29.956 
16:45	40.5	40.5	40.5	76	33.5	0	1	248	0.00	29.968 
16:50	40.5	40.5	40.5	75	33.2	0	2	248	0.00	29.968 
16:55	40.5	40.5	40.5	75	33.2	1	4	248	0.00	29.968 
17:00	40.3	40.3	40.3	75	33.0	0	2	248	0.00	29.963 
17:05	40.3	40.3	40.3	75	33.0	0	1	248	0.00	29.963 
17:10	40.3	40.3	40.3	75	33.0	0	1	248	0.00	29.963 
17:15	40.3	40.3	40.3	76	33.3	0	2	248	0.00	29.968 
17:20	40.3	40.3	40.3	75	33.0	0	2	248	0.00	29.968 
17:25	40.2	40.2	40.2	75	32.9	0	2	248	0.00	29.968 
17:30	40.2	40.2	40.2	76	33.3	0	1	248	0.00	29.962 
17:35	40.2	40.2	40.2	76	33.3	0	1	248	0.00	29.962 
17:40	40.1	40.1	40.1	77	33.5	0	2	248	0.00	29.962 
17:45	40.1	40.1	40.1	77	33.5	0	1	248	0.00	29.968 
17:50	39.9	39.9	39.9	76	33.0	1	3	248	0.00	29.968 
17:55	39.9	39.9	39.9	76	33.0	1	4	248	0.00	29.968 
18:00	39.9	39.9	39.9	76	33.0	1	5	248	0.00	29.974 
18:05	39.9	39.9	39.9	76	33.0	1	4	248	0.00	29.974 
18:10	39.9	39.9	39.9	76	33.0	0	2	225	0.00	29.974 
18:15	39.9	39.9	39.9	76	33.0	1	3	225	0.00	29.973 
18:20	39.9	39.9	39.9	76	33.0	1	3	248	0.00	29.973 
18:25	39.9	39.9	39.9	76	33.0	1	2	248	0.00	29.973 
18:30	39.8	39.8	39.8	77	33.2	1	4	248	0.00	29.976 
18:35	39.8	39.8	39.8	77	33.2	2	5	248	0.00	29.976 
18:40	39.8	39.8	39.8	77	33.2	0	2	248	0.00	29.976 
18:45	39.8	39.8	39.8	77	33.2	1	3	248	0.00	29.977 
18:50	39.6	39.6	39.6	77	33.0	1	2	248	0.00	29.977 
18:55	39.6	39.6	39.6	78	33.3	0	2	248	0.00	29.977 
19:00	39.6	39.6	39.6	77	33.0	1	3	248	0.00	29.974 
19:05	39.6	39.6	39.6	78	33.3	0	2	248	0.00	29.974 
19:10	39.6	39.6	39.6	78	33.3	1	3	248	0.00	29.974 
19:15	39.6	39.6	39.6	78	33.3	1	4	248	0.00	29.976 
19:20	39.6	39.6	39.6	78	33.3	1	3	248	0.00	29.976 
19:25	39.6	39.6	39.6	79	33.6	0	1	248	0.00	29.976 
19:30	39.5	39.5	39.5	79	33.5	0	2	248	0.00	29.985 
19:35	39.5	39.5	39.5	78	33.2	0	3	248	0.00	29.985 
19:40	39.5	39.5	39.5	79	33.5	1	3	248	0.00	29.985 
19:45	39.5	39.5	39.5	79	33.5	1	3	248	0.00	29.986 
19:50	39.3	39.3	39.3	79	33.3	1	4	248	0.00	29.986 
19:55	39.3	39.3	39.3	79	33.3	1	3	248	0.00	29.986 
20:00	39.3	39.3	39.3	79	33.3	1	3	248	0.00	29.988 
20:05	39.3	39.3	39.3	80	33.7	1	3	248	0.00	29.988 
20:10	39.3	39.3	39.3	80	33.7	0	2	248	0.00	29.988 
20:15	39.3	39.3	39.3	80	33.7	0	2	248	0.00	29.988 
20:20	39.5	39.5	39.5	80	33.9	0	2	248	0.00	29.988 
20:25	39.5	39.5	39.5	80	33.9	0	2	248	0.00	29.988 
20:30	39.3	39.3	39.3	80	33.7	0	1	248	0.00	29.987 
20:35	39.3	39.3	39.3	80	33.7	0	1	248	0.00	29.987 
20:40	39.3	39.3	39.3	81	34.0	0	1	248	0.00	29.987 
20:45	39.3	39.3	39.3	81	34.0	0	2	248	0.00	29.985 
20:50	39.3	39.3	39.3	81	34.0	0	1	248	0.00	29.985 
20:55	39.3	39.3	39.3	81	34.0	0	1	248	0.00	29.985 
21:00	39.2	39.2	39.2	81	33.9	0	2	248	0.00	29.976 
21:05	39.2	39.2	39.2	81	33.9	0	1	248	0.00	29.976 
21:10	39.2	39.2	39.2	81	33.9	0	1	248	0.00	29.976 
21:15	39.1	39.1	39.1	81	33.8	0	1	248	0.00	29.973 
21:20	39.1	39.1	39.1	82	34.1	0	0	---	0.00	29.973 
21:25	39.1	39.1	39.1	82	34.1	0	0	---	0.00	29.973 
21:30	38.9	38.9	38.9	82	33.9	0	0	---	0.00	29.972 
21:35	38.9	38.9	38.9	82	33.9	0	0	---	0.00	29.972 
21:40	38.9	38.9	38.9	83	34.2	0	0	---	0.00	29.972 
21:45	38.9	38.9	38.9	83	34.2	0	0	---	0.00	29.972 
21:50	38.8	38.8	38.8	83	34.1	0	0	---	0.00	29.972 
21:55	38.8	38.8	38.8	83	34.1	0	1	248	0.00	29.972 
22:00	38.9	38.9	38.9	83	34.2	0	0	---	0.00	29.972 
22:05	38.9	38.9	38.9	83	34.2	0	0	---	0.00	29.972 
22:10	38.9	38.9	38.9	83	34.2	0	0	---	0.00	29.972 
22:15	38.9	38.9	38.9	83	34.2	0	0	---	0.00	29.976 
22:20	38.9	38.9	38.9	83	34.2	0	0	---	0.00	29.976 
22:25	39.1	39.1	39.1	83	34.4	0	0	---	0.00	29.976 
22:30	39.1	39.1	39.1	83	34.4	0	1	248	0.00	29.972 
22:35	39.1	39.1	39.1	83	34.4	0	1	248	0.00	29.972 
22:40	39.2	39.2	39.2	83	34.5	0	0	---	0.00	29.972 
22:45	39.2	39.2	39.2	83	34.5	0	1	248	0.00	29.974 
22:50	39.2	39.2	39.2	83	34.5	0	0	---	0.00	29.974 
22:55	39.2	39.2	39.2	83	34.5	0	0	---	0.00	29.974 
23:00	39.2	39.2	39.2	83	34.5	0	1	248	0.00	29.970 
23:05	39.2	39.2	39.2	83	34.5	0	0	---	0.00	29.970 
23:10	39.2	39.2	39.2	83	34.5	0	0	---	0.00	29.970 
23:15	39.2	39.2	39.2	83	34.5	0	0	---	0.00	29.967 
23:20	39.2	39.2	39.2	83	34.5	0	1	248	0.00	29.967 
23:25	39.2	39.2	39.2	83	34.5	0	0	---	0.00	29.967 
23:30	39.2	39.2	39.2	83	34.5	0	0	---	0.00	29.966 
23:35	39.2	39.2	39.2	84	34.8	0	0	---	0.00	29.966 
23:40	39.2	39.2	39.2	84	34.8	0	0	---	0.00	29.966 
23:45	39.2	39.2	39.2	83	34.5	0	0	---	0.00	29.963 
23:50	39.2	39.2	39.2	83	34.5	0	0	---	0.00	29.963 
23:55	39.2	39.2	39.2	84	34.8	0	0	---	0.00	29.963 

CoCoRaHS
IN-AL-39
A2 Web Hosting
Creative Commons License
GoDaddy
Look for:

loaded 2017-10-16 18:09:10 • last modified 2010-11-18 10:43:29
Privacy PolicyDisclaimer
• wx.awcolley.com is powered by PmWiki v.2002016 •
• all content (unless otherwise noted) © 2017 A W Colley